Weather History for Mobridge, SD

Change the Weather History Date:

Tuesday, May 8, 2012

  Actual Average Record
Temperature  
Mean Temperature 45 °F 54 °F  
Max Temperature 56 °F 66 °F 103 °F (1934)
Min Temperature 34 °F 41 °F 20 °F (1945)
Degree Days  
Heating Degree Days 20 12  
Month to date heating degree days 65 101  
Since 1 July heating degree days 6460 7696  
Cooling Degree Days 0 0  
Month to date cooling degree days 0 0  
Year to date cooling degree days 6 1  
Moisture  
Dew Point 38 °F    
Average Humidity 70    
Maximum Humidity 89    
Minimum Humidity 51    
Precipitation  
Precipitation 0.00 in 0.08 in 2.65 in (1986)
Month to date precipitation 0.42 0.69  
Year to date precipitation 4.22 3.89  
Sea Level Pressure  
Sea Level Pressure 30.10 in    
Wind  
Wind Speed 12 mph (NNW)    
Max Wind Speed 23 mph    
Max Gust Speed 29 mph    
Visibility 10 miles    
Events      
T = Trace of Precipitation, MM = Missing Value Source: NWS Daily Summary

Daily Weather History Graph

Daily Weather History Graph

Search for Another Location

Airport:

Trip Planner

Search our weather history database for the weather conditions in past years. The results will help you decide how hot, cold, wet, or windy it might be!

Date:

Astronomy

May. 08, 2012 Rise Set
Actual Time 6:18 AM CDT 8:58 PM CDT
Civil Twilight 5:45 AM CDT 9:31 PM CDT
Nautical Twilight 5:02 AM CDT 10:14 PM CDT
Astronomical Twilight 4:13 AM CDT 11:04 PM CDT
Moon No Moon Rise 8:24 AM CDT (5/8)
Length of Visible Light 15h 46m
Length of Day
14h 39m
Waning Gibbous, 90% of the Moon is Illuminated
May 8
Waning Gibbous
May 12
Last Quarter
May 20
New
May 28
First Quarter
Jun 4
Full

Hourly Weather History & Observations

Time (CDT) Temp. Windchill Dew Point Humidity Pressure Visibility Wind Dir Wind Speed Gust Speed Precip Events Conditions
12:52 AM 50.0 °F - 39.9 °F 68% 30.04 in 10.0 mi NW 18.4 mph 28.8 mph N/A   Overcast
1:52 AM 48.0 °F - 39.9 °F 74% 30.04 in 10.0 mi NW 11.5 mph - N/A   Mostly Cloudy
2:52 AM 46.9 °F - 39.9 °F 77% 30.03 in 10.0 mi WNW 11.5 mph - N/A   Mostly Cloudy
3:52 AM 44.1 °F 38.6 °F 39.0 °F 82% 30.04 in 10.0 mi WNW 10.4 mph - N/A   Partly Cloudy
4:52 AM 46.0 °F 39.9 °F 39.0 °F 76% 30.03 in 10.0 mi NW 13.8 mph - N/A   Partly Cloudy
5:52 AM 44.1 °F 37.4 °F 39.0 °F 82% 30.04 in 10.0 mi NNW 13.8 mph - N/A   Clear
6:52 AM 43.0 °F 36.0 °F 39.0 °F 86% 30.06 in 10.0 mi NNW 13.8 mph - N/A   Clear
7:52 AM 44.1 °F 36.2 °F 39.0 °F 82% 30.08 in 10.0 mi NW 18.4 mph 23.0 mph N/A   Mostly Cloudy
8:52 AM 46.9 °F - 39.0 °F 74% 30.09 in 10.0 mi NNW 18.4 mph 26.5 mph N/A   Overcast
9:52 AM 48.0 °F - 37.9 °F 68% 30.11 in 10.0 mi NNW 18.4 mph 25.3 mph N/A   Overcast
10:47 AM 46.4 °F 39.5 °F 37.4 °F 71% 30.10 in 10.0 mi NNW 17.3 mph 23.0 mph N/A   Overcast
10:52 AM 46.9 °F - 39.0 °F 74% 30.12 in 10.0 mi NW 16.1 mph 21.9 mph N/A   Overcast
11:52 AM 48.0 °F - 39.9 °F 74% 30.13 in 10.0 mi North 13.8 mph 24.2 mph N/A   Overcast
12:12 PM 48.2 °F - 39.2 °F 71% 30.11 in 10.0 mi NNW 19.6 mph - N/A   Overcast
12:49 PM 50.0 °F - 37.4 °F 62% 30.11 in 10.0 mi NNW 17.3 mph 24.2 mph N/A   Overcast
12:52 PM 50.0 °F - 37.9 °F 63% 30.13 in 10.0 mi NNW 16.1 mph 24.2 mph N/A   Overcast
1:08 PM 48.2 °F - 37.4 °F 66% 30.11 in 10.0 mi NNW 16.1 mph - N/A   Overcast
1:34 PM 50.0 °F - 39.2 °F 66% 30.11 in 10.0 mi NW 19.6 mph - N/A   Overcast
1:52 PM 51.1 °F - 37.9 °F 61% 30.12 in 10.0 mi WNW 17.3 mph 20.7 mph N/A   Overcast
2:52 PM 52.0 °F - 37.9 °F 59% 30.12 in 10.0 mi NNW 13.8 mph - N/A   Overcast
3:52 PM 53.1 °F - 37.9 °F 57% 30.12 in 10.0 mi North 13.8 mph 21.9 mph N/A   Overcast
4:52 PM 54.0 °F - 39.0 °F 57% 30.10 in 10.0 mi North 10.4 mph 19.6 mph N/A   Overcast
5:52 PM 55.0 °F - 37.9 °F 53% 30.10 in 10.0 mi North 12.7 mph - N/A   Overcast
6:52 PM 54.0 °F - 37.9 °F 55% 30.10 in 10.0 mi NNE 11.5 mph - N/A   Mostly Cloudy
7:52 PM 52.0 °F - 37.9 °F 59% 30.10 in 10.0 mi NNE 5.8 mph - N/A   Mostly Cloudy
8:52 PM 45.0 °F 41.8 °F 37.9 °F 76% 30.11 in 10.0 mi NE 5.8 mph - N/A   Clear
9:52 PM 41.0 °F 38.0 °F 35.1 °F 79% 30.14 in 10.0 mi ENE 4.6 mph - N/A   Scattered Clouds
10:52 PM 42.1 °F 39.2 °F 36.0 °F 79% 30.14 in 10.0 mi ENE 4.6 mph - N/A   Mostly Cloudy
11:52 PM 39.0 °F - 35.1 °F 86% 30.14 in 10.0 mi Calm Calm - N/A   Clear